AirNav   ProFlight Series 2 Aviation Headset
 
 1001 users online  

KJRB Downtown Manhattan/Wall Street Heliport
New York, New York, USA

GOING TO NEW YORK?


FAA INFORMATION EFFECTIVE 18 JUNE 2020

Location

FAA Identifier: JRB
Lat/Long: 40-42-04.3690N 074-00-32.5020W
40-42.072817N 074-00.541700W
40.7012136,-74.0090283
(estimated)
Elevation: 7 ft. / 2 m (estimated)
Variation: 13W (2010)
From city: 3 miles SE of NEW YORK, NY
Time zone: UTC -4 (UTC -5 during Standard Time)
Zip code: 10004

Heliport Operations

Heliport use: Open to the public
Activation date: 11/1972
Control tower: no
ARTCC: NEW YORK CENTER
FSS: NEW YORK FLIGHT SERVICE STATION
NOTAMs facility: ISP (NOTAM-D service available)
Attendance: SAT 0700-1900, ALL SUN 0700-1700, ALL MON-FRI 0700-2200
ATTENDANCE EARLY HRS HOL & WKND SKEDS REQUIRES 24 HRS NOTICE CALL 212-248-7240.
Wind indicator: lighted
Segmented circle: no
Lights: SS-SR
Landing fee: yes

Heliport Communications

CTAF/UNICOM: 123.05
WX AWOS-3PT: 128.175 (212-425-1534)
NEW YORK APPROACH: 120.8
NEW YORK DEPARTURE: 120.8
WX ASOS at EWR (7 nm W): PHONE 973-621-2892
WX ASOS at LGA (8 nm NE): PHONE 718-672-6317
WX ASOS at TEB (9 nm N): 132.025 (201-393-0855)
WX ASOS at JFK (11 nm E): 128.725 (718-656-0956)
WX AWOS-3 at LDJ (12 nm SW): 124.025 (908-862-7383)
WX ASOS at CDW (16 nm NW): 135.5 (973-575-4417)
WX AWOS-3 at MMU (19 nm W): PHONE 973-290-0135

Nearby radio navigation aids

VOR radial/distance  VOR name  Freq  Var
CRIr327/7.5CANARSIE VOR/DME112.3011W
LGAr244/8.1LA GUARDIA VOR/DME113.1012W
TEBr176/9.2TETERBORO VOR/DME108.4011W
JFKr303/11.6KENNEDY VOR/DME115.9012W
COLr027/24.4COLTS NECK VOR/DME115.4011W
DPKr272/32.5DEER PARK VOR/DME117.7012W
SAXr143/32.6SPARTA VORTAC115.7011W
SBJr088/34.1SOLBERG VOR/DME112.9010W
RBVr047/37.3ROBBINSVILLE VORTAC113.8010W
BWZr110/37.4BROADWAY VOR/DME114.2011W
CMKr221/39.8CARMEL VOR/DME116.6012W

 
NDB name  Hdg/Dist  Freq  Var  ID
TORBY150/8.421412WTE - .
CHATHAM110/19.325413WCAT -.-. .- -
BABYLON287/28.527514WBBN -... -... -.

Heliport Services

Fuel available: A
Airframe service: NONE
Powerplant service: NONE
Bottled oxygen: NONE
Bulk oxygen: NONE

Runway Information

Helipad H1

Dimensions: 62 x 62 ft. / 19 x 19 m
Surface: concrete, in good condition
Weight bearing capacity: 
Single wheel: 50.0
Runway edge lights: PERI
Latitude: 40-42.072817N
Longitude: 074-00.541700W
Elevation: 7.0 ft.
Traffic pattern: leftleft
Markings: basic, in good condition

Heliport Ownership and Management from official FAA records

Ownership: Publicly-owned
Owner: ECONOMIC DEVELOPMENT CORP
110 WILLIAM ST
NEW YORK, NY 10038
Phone 212-248-7240
Manager: MR. BRIAN TOLBERT
PIER 6 EAST RIVER
NEW YORK, NY 10004
Phone 212-248-7240
SAKER AVIATION

Heliport Operational Statistics

Aircraft operations: avg 86/day *
85% air taxi
14% transient general aviation
<1% military
* for 12-month period ending 30 April 2018

Additional Remarks

NO FLTS OR APCHS OVER FDR DRIVE; TWO-WAY RDO RQRD.
BIRDS ON & INVOF HELIPORT.
BOATS MAY NAVIGATE IN WATER ALONG HELIPORT PIER.
13 HELICOPTER PARKING SPACES WITH ADDITIONAL TRANSIENT POSITIONS AVBL. FIRE STAND PIPES ON SITE.
FOR CD CTC NEW YORK APCH AT 516-683-2849.

Instrument Procedures

NOTE: All procedures below are presented as PDF files. If you need a reader for these files, you should download the free Adobe Reader.

NOT FOR NAVIGATION. Please procure official charts for flight.
FAA instrument procedures published for use from 18 June 2020 at 0901Z to 16 July 2020 at 0900Z.

 
Departure Procedures
JEDIL TWO (COPTER) (RNAV)   download (106KB)
NOTE: Special Take-Off Minimums/Departure Procedures apply   download (592KB)

Other nearby airports with instrument procedures:

6N5 - East 34th Street Heliport (3 nm NE)
KJRA - West 30th St Heliport (3 nm N)
KEWR - Newark Liberty International Airport (7 nm W)
KLGA - LaGuardia Airport (8 nm NE)
KTEB - Teterboro Airport (9 nm N)
KJFK - John F Kennedy International Airport (11 nm E)
KLDJ - Linden Airport (12 nm SW)
KCDW - Essex County Airport (16 nm NW)
KMMU - Morristown Municipal Airport (19 nm W)
 
Loc | Ops | Rwys | IFR | FBO | Links
Com | Nav | Svcs | Stats | Notes
Area around KJRB (Downtown Manhattan/Wall Street Heliport)
 
Road maps at: MapQuest Bing Google
 
Aerial photo
WARNING: Photo may not be current or correct
Aerial photo of KJRB (Downtown Manhattan/Wall Street Heliport)
Photo by New York Jet Charter Flights by GiveJet jetcharterrewards.com/newyork.htm
Photo taken 01-May-2014
looking northeast.

Do you have a better or more recent aerial photo of Downtown Manhattan/Wall Street Heliport that you would like to share? If so, please send us your photo.

 
Sectional chart

 
Airport distance calculator
Flying to Downtown Manhattan/Wall Street Heliport? Find the distance to fly.

From to KJRB

Sunrise and sunset
Times for 12-Jul-2020
 Local
(UTC-4)
 Zulu
(UTC)
Morning civil twilight05:0509:05
Sunrise05:3709:37
Sunset20:2600:26
Evening civil twilight20:5900:59

Current date and time
Zulu (UTC)  12-Jul-2020 20:38:32
Local (UTC-4)  12-Jul-2020 16:38:32
 
METAR
KJRB 121956Z AUTO 27012KT 10SM CLR 32/17 A2972 RMK AO2 SLP063 T03170172 PNO $
KNYC 
5nm N 
121951Z AUTO 00000KT 10SM CLR 30/18 A2973 RMK AO2 SLP057 T03000178 $
KEWR 
7nm W 
121951Z 25016KT 10SM SCT060 SCT250 33/14 A2971 RMK AO2 SLP059 T03280144
KLGA 
8nm NE 
121951Z 27012KT 10SM SCT065 BKN200 33/13 A2970 RMK AO2 SLP056 T03330133
KTEB 
10nm N 
121951Z 25012G20KT 10SM FEW060 32/17 A2969 RMK AO2 SLP053 T03170172
KJFK 
12nm E 
121951Z 23018KT 10SM SCT075 BKN200 32/16 A2972 RMK AO2 SLP064 T03170156
KLDJ 
12nm SW 
121955Z AUTO 28009G15KT 10SM CLR A2972 RMK AO2
KCDW 
17nm NW 
121953Z 20006KT 10SM FEW065 32/16 A2971 RMK AO2 SLP065 T03170156 $
KMMU 
19nm W 
121945Z 27010G16KT 10SM SCT060 32/17 A2972
TAF
KEWR 
7nm W 
121959Z 1220/1324 26013G20KT P6SM SCT040 FM130000 23007KT P6SM SCT050 FM130200 21005KT P6SM SCT050 BKN150 BKN250 FM130400 VRB04KT P6SM VCSH SCT025 BKN050 BKN100 FM131500 25007KT P6SM SCT025 BKN050 BKN150 FM131800 24014KT P6SM VCSH SCT020 BKN040 BKN080
KLGA 
8nm NE 
121959Z 1220/1324 22015G22KT P6SM SCT050 FM130000 23010KT P6SM SCT050 FM130200 21007KT P6SM SCT050 BKN150 BKN250 FM130400 VRB05KT P6SM VCSH SCT025 BKN050 BKN100 FM131500 23009KT P6SM SCT025 BKN050 BKN150 FM131900 22013KT P6SM VCSH SCT020 BKN040 BKN080
KTEB 
10nm N 
121959Z 1220/1324 25011G18KT P6SM SCT050 FM130000 23009KT P6SM SCT050 FM130100 21005KT P6SM SCT050 BKN250 FM130300 VRB03KT P6SM SCT050 BKN150 FM130400 VRB04KT P6SM VCSH SCT025 BKN050 BKN100 FM131500 25007KT P6SM SCT025 BKN050 BKN150 FM131900 24014KT P6SM SCT020 BKN040 BKN080
KJFK 
12nm E 
121959Z 1220/1324 21016G23KT P6SM SCT050 FM130000 21013KT P6SM SCT050 FM130200 21009KT P6SM SCT050 BKN150 BKN250 FM130400 VRB05KT P6SM VCSH SCT025 BKN050 BKN100 FM131500 21009KT P6SM SCT025 BKN050 BKN100 FM131900 23014KT P6SM VCSH SCT020 BKN040 BKN080
NOTAMs
Click for the latest NOTAMs
NOTAMs are issued by the DoD/FAA and will open in a separate window not controlled by AirNav.

 

 
 

FBO, Fuel Providers, and Aircraft Ground Support

  
 Business Name 
 
 Contact 
 
 Services / Description 
 
Fuel Prices
 
Comments
  
 Saker Aviation Services, Inc.
212-248-7240
212-248-7241
[web site]
[email]

Like us on facebook Follow us on twitter
Airport management, Aviation fuel, Aircraft parking (ramp or tiedown), Passenger terminal and lounge, Aerial tours / aerial sightseeing, Aircraft charters, ...

More info about Saker Aviation Services, Inc.
Avfuel
Jet A
FS $8.39 
 Updated 07-Jul-2020
 
   write
FS=Full service
Update Fuel Prices
 

Would you like to see your business listed on this page?

 If your business provides an interesting product or service to pilots, flight crews, aircraft, or users of the Downtown Manhattan/Wall Street Heliport, you should consider listing it here.  To start the listing process, click on the button below
 
Add a business
 

Other Pages about Downtown Manhattan/Wall Street Heliport

www.panynj.gov/...
www.downtownmanhattanheliport.com
 
Update a link
 
Copyright © AirNav, LLC. All rights reserved. Privacy Policy  Contact